CZ-3C DEB, 40202

Orbit data source: Space-Track

CZ-3C DEB, 40202 is space debris in HEO originally from a launch on Fri, 24 Feb 2012 UTC launched from the Xichang Space Center, China (XSC). Debris objects in space refer to the collection of defunct objects orbiting the Earth. Examples of debris include non-operational satellites, rocket bodies, and fragments generated from explosions, collisions, or faulty payload assembly.

Loading next visibility...
Identifier
40202, 2012-008M
Orbit
HEO
Country
Flag of CNCN / PRC
Related business
Manufacturer
CALT
Mission
Spacecraft
Bus & Motor
Unknown
Mass
Unknown
Launch date (UTC)
2012-02-24 (14 years ago)
Launch vehicle
Unknown
Launch site
Xichang Space Center, China (XSC)
Object type
Payload
Rocket body
Debris
Shape & HBR
Unknown shape, 0.1 m
Radar Cross Section
Medium (>0.1 m² and <1 m²)

Expand to show TLE details & history
Last TLE update: 1 week ago

TLE from 1 week ago
0 CZ-3C DEB
1 40202U 12008M   25296.30275740  .00000678  00000-0  35684-2 0  9990
2 40202  20.1266 286.7230 7122307  29.3739 356.4926  2.36228612105340
Epoch: 2025-10-23T07:15Z
TLE epoch observation values (Epoch: 2025-10-23T07:15:58.239Z)
Latitude
0.00007°
Longitude
145.70917°
Altitude
883.661 km
Speed
9.645 km/s
True Right ascension
19h 06m 39s
True Declination
0° 00' 00"
Sunlit
Object was in daylight at epoch
Visualization orbit readout
Latitude
Unknown
Longitude
Unknown
Altitude
Unknown
Speed
Unknown
Apparent Right ascension
Unknown
Apparent Declination
Unknown
Sunlit
N/A
Visualization observer readout
Local Sidereal Time
15:02:06
Azimuth
Unknown
Elevation
Unknown
Doppler factor
Unknown
Orbital elements
Apogee altitude
34,405.841 km
Perigee altitude
476.3 km
Semi-major axis
23,819.207 km
Eccentricity
0.71223
Inclination
20.1266°
RAAN
286.723°
Arg. of periapsis
29.3739°
True anomaly
331.30319°
Mean anomaly
356.4926°
Eccentric anomaly
348.02697°
Mean motion
0.59041 °/min
Orbital period
609.75 mins
BSTAR
0.0035684
Loading maneuver chart data...
Computing Atmospheric mass density...
Loading historical data...
Loading historical data...
Loading historical data...
Loading historical data...
Loading historical data...
Loading historical data...
Loading historical data...

Documentation

Showing up to 5 results
|